This is the latest recevied weather packets stored in our database for station/object NK7I. If no packets are shown the sender has not sent any weather packets the latest 10 day(s).
| Time | Temp. | Humidity | Pressure | Rain* | Wind** | Luminosity | Snow |
|---|---|---|---|---|---|---|---|
| 1777755982 | 23.33° C | 42% | 1014.1 hPa | 0 mm | - | 1229 W/m² | - |
| 1777755682 | 22.78° C | 38% | 1014.1 hPa | 0 mm | - | 1399 W/m² | - |
| 1777755382 | 22.78° C | 40% | 1014.1 hPa | 0 mm | - | 1385 W/m² | - |
| 1777755082 | 22.78° C | 47% | 1014.2 hPa | 0 mm | - | 1354 W/m² | - |
| 1777754782 | 22.22° C | 40% | 1014.2 hPa | 0 mm | - | 636 W/m² | - |
| 1777754482 | 22.22° C | 40% | 1014.3 hPa | 0 mm | - | 652 W/m² | - |
| 1777754184 | 22.22° C | 46% | 1014.4 hPa | 0 mm | - | 991 W/m² | - |
| 1777753883 | 22.22° C | 46% | 1014.4 hPa | 0 mm | - | 1243 W/m² | - |
| 1777753583 | 22.22° C | 46% | 1014.6 hPa | 0 mm | - | 1252 W/m² | - |
| 1777753282 | 22.22° C | 44% | 1014.6 hPa | 0 mm | - | 1260 W/m² | - |
| 1777752982 | 22.22° C | 45% | 1014.6 hPa | 0 mm | - | 1276 W/m² | - |
| 1777752683 | 22.22° C | 49% | 1014.8 hPa | 0 mm | - | 1294 W/m² | - |
| 1777752382 | 21.67° C | 50% | 1014.9 hPa | 0 mm | - | 1281 W/m² | - |
| 1777752082 | 21.67° C | 43% | 1014.9 hPa | 0 mm | - | 1259 W/m² | - |
| 1777751782 | 21.67° C | 48% | 1014.9 hPa | 0 mm | - | 1255 W/m² | - |
| 1777751482 | 21.67° C | 44% | 1015 hPa | 0 mm | - | 1294 W/m² | - |
| 1777751183 | 21.67° C | 44% | 1015.1 hPa | 0 mm | - | 1324 W/m² | - |
| 1777750882 | 21.11° C | 52% | 1015.2 hPa | 0 mm | - | 1315 W/m² | - |
| 1777750582 | 21.11° C | 47% | 1015.2 hPa | 0 mm | - | 1313 W/m² | - |
| 1777750282 | 20.56° C | 47% | 1015.2 hPa | 0 mm | - | 1325 W/m² | - |
| 1777749982 | 20.56° C | 51% | 1015.4 hPa | 0 mm | - | 1327 W/m² | - |
| 1777749682 | 20° C | 48% | 1015.6 hPa | 0 mm | - | 1331 W/m² | - |
| 1777749382 | 20° C | 45% | 1015.8 hPa | 0 mm | - | 1327 W/m² | - |
| 1777749082 | 20° C | 49% | 1015.9 hPa | 0 mm | - | 1294 W/m² | - |
| 1777748782 | 20° C | 51% | 1015.9 hPa | 0 mm | - | 1269 W/m² | - |
* Rain latest hour (hover to see other rain measurements)
** Current wind speed in m/s (hover to see current wind gust speed)